Location: Shannon
(40.5500°S, 175.4167°E)
Time: 21:51:23
(UTC+00:00)

SL-08 RB Rocket - Pass Details

Date: 17 November 2025
Orbit: 632 x 667 km, 97.8° (Epoch: 06 December)

Event Time Altitude Azimuth Distance (km) Brightness Sun altitude
Rises 15:43:08 0° 13° (NNE) 2,923 6.8 -11.5°
Reaches altitude 10° 15:45:19 10° 12° (NNE) 2,022 5.9 -11.2°
Maximum altitude 15:49:43 85° 285° (WNW) 650 3.6 -10.5°
Drops below altitude 10° 15:54:13 10° 193° (SSW) 2,053 6.5 -9.8°
Sets 15:56:26 0° 192° (SSW) 2,973 7.4 -9.5°
